Home   Weather   Glennallen   Past weeks

Flag for USA Past Weather in Glennallen, Alaska, USA — Yesterday and Last 2 Weeks

Now
-12 °F

Partly sunny.


Feels Like: -12 °F
Forecast: -28 / -14 °F
Wind: No wind

Location: Gulkana Airport

Current Time: Dec 8, 2016 at 3:17:23 pm

Latest Report: Dec 8, 2016 at 1:53 pm


Visibility: 10 mi

Pressure: 30.61 "Hg

Humidity: 81%

Dew Point: -16 °F

Location of GlennallenLocation

Past Weather in Glennallen — Graph

°F

Glennallen Temperature Yesterday

Maximum temperature yesterday: -3 °F (at 1:53 pm)
Minimum temperature yesterday: -14 °F (at 11:53 pm)
Average temperature yesterday: -5 °F

High & Low Weather Summary for the Past Weeks

 TemperatureHumidityPressure
High16 °F (Dec 2, 12:53 pm)92% (Nov 27, 11:00 pm)30.76 "Hg (Nov 27, 11:00 pm)
Low-33 °F (Dec 5, 8:53 am)57% (Dec 3, 11:53 am)29.11 "Hg (Dec 2, 3:03 am)
Average-5 °F81%29.91 "Hg
* Reported Nov 23 1:53 pm — Dec 8 1:53 pm, Glennallen, Weather by CustomWeather, © 2016

Note: Actual official high and low records may vary slightly from our data, if they occured in-between our weather recording intervals... More about our weather records

Advertising

Glennallen Weather History for the Previous 24 Hours

Scroll right to see more
 ConditionsComfort  
Time TempWeatherWind HumidityBarometerVisibility
1:53 pm
Thu, Dec 8
-12 °FPartly sunny.No wind81%30.61 "Hg10 mi
12:53 pm-13 °FPassing clouds.3 mph82%30.62 "Hg10 mi
11:53 am-15 °FPassing clouds.No wind82%30.63 "Hg10 mi
10:53 am-17 °FPartly sunny.No wind82%30.63 "Hg10 mi
9:53 am-19 °FPartly sunny.3 mph85%30.62 "Hg10 mi
8:53 am-23 °FOvercast.No wind86%30.63 "Hg10 mi
8:00 am-25 °FIce fog.No wind81%30.38 "Hg2 mi
6:53 am-25 °FClear.No wind81%30.63 "Hg10 mi
5:53 am-25 °FClear.5 mph77%30.64 "Hg10 mi
4:53 am-23 °FClear.5 mph77%30.63 "Hg10 mi
3:53 am-22 °FClear.No wind73%30.63 "Hg10 mi
2:53 am-22 °FClear.No wind81%30.63 "Hg10 mi
1:53 am-21 °FClear.No wind85%30.63 "Hg10 mi
12:53 am-17 °FClear.No wind82%30.61 "Hg10 mi
11:53 pm
Wed, Dec 7
-14 °FClear.No wind82%30.60 "Hg10 mi
10:53 pm-9 °FPassing clouds.No wind87%30.58 "Hg10 mi
9:53 pm-6 °FOvercast.No windN/A30.57 "Hg10 mi
8:53 pm-4 °FOvercast.No wind83%30.56 "Hg10 mi
7:53 pm-6 °FOvercast.No windN/A30.56 "Hg10 mi
6:53 pm-3 °FOvercast.No wind82%30.55 "Hg10 mi
5:53 pm-4 °FMostly cloudy.No wind83%30.55 "Hg10 mi
4:53 pm-3 °FOvercast.No wind82%30.54 "Hg10 mi
3:53 pm-3 °FOvercast.No wind82%30.54 "Hg10 mi
Weather by CustomWeather, © 2016

See weather overviewHow to use our weather pages